Weather History for Marathon, FL

Change the Weather History Date:

Sunday, May 26, 2013

  Actual Average Record
Temperature  
Mean Temperature 85 °F 83 °F  
Max Temperature 90 °F 88 °F 90 °F (1999)
Min Temperature 80 °F 78 °F 72 °F (2004)
Degree Days  
Heating Degree Days 0 0  
Month to date heating degree days 0 0  
Since 1 July heating degree days 36 81  
Cooling Degree Days 20 18  
Month to date cooling degree days 455 413  
Year to date cooling degree days 1753 1449  
Growing Degree Days 35 (Base 50)    
Moisture  
Dew Point 64 °F    
Average Humidity 52    
Maximum Humidity 62    
Minimum Humidity 41    
Precipitation  
Precipitation 0.00 in 0.11 in 0.27 in (2007)
Month to date precipitation 5.15 2.67  
Year to date precipitation 13.04 11.26  
Snow  
Snow 0.00 in - - ()
Month to date snowfall 0.0  
Since 1 July snowfall 0.0  
Snow Depth 0.00 in    
Sea Level Pressure  
Sea Level Pressure 30.11 in    
Wind  
Wind Speed 11 mph (ENE)    
Max Wind Speed 17 mph    
Max Gust Speed 25 mph    
Visibility 10 miles    
Events      
T = Trace of Precipitation, MM = Missing Value Source: NWS Daily Summary

Daily Weather History Graph

Daily Weather History Graph

Search for Another Location

Airport:

Trip Planner

Search our weather history database for the weather conditions in past years. The results will help you decide how hot, cold, wet, or windy it might be!

Date:

Astronomy

May. 26, 2013 Rise Set
Actual Time 6:36 AM EDT 8:06 PM EDT
Civil Twilight 6:10 AM EDT 8:31 PM EDT
Nautical Twilight 5:40 AM EDT 9:01 PM EDT
Astronomical Twilight 5:09 AM EDT 9:33 PM EDT
Moon 9:55 PM EDT (5/26) 8:02 AM EDT (5/26)
Length of Visible Light 14h 20m
Length of Day
13h 30m
Waning Gibbous, 97% of the Moon is Illuminated
May 26
Waning Gibbous
May 31
Last Quarter
Jun 8
New
Jun 16
First Quarter
Jun 23
Full

Hourly Weather History & Observations

Time (EDT) Temp. Heat Index Dew Point Humidity Pressure Visibility Wind Dir Wind Speed Gust Speed Precip Events Conditions
12:53 AM 82.9 °F 84.6 °F 64.9 °F 54% 30.13 in 10.0 mi ENE 16.1 mph 21.9 mph N/A   Clear
1:53 AM 82.0 °F 83.4 °F 64.0 °F 54% 30.11 in 10.0 mi East 12.7 mph 18.4 mph N/A   Clear
2:53 AM 81.0 °F 82.5 °F 64.0 °F 56% 30.09 in 10.0 mi East 11.5 mph - N/A   Clear
3:53 AM 81.0 °F 82.2 °F 63.0 °F 54% 30.09 in 10.0 mi ENE 11.5 mph - N/A   Clear
4:53 AM 81.0 °F 83.0 °F 66.0 °F 60% 30.08 in 10.0 mi ENE 11.5 mph - N/A   Scattered Clouds
5:53 AM 81.0 °F 82.7 °F 64.9 °F 58% 30.09 in 10.0 mi ENE 10.4 mph - N/A   Partly Cloudy
6:53 AM 81.0 °F 82.2 °F 63.0 °F 54% 30.10 in 10.0 mi ENE 10.4 mph - N/A   Partly Cloudy
7:53 AM 82.0 °F 82.7 °F 61.0 °F 49% 30.11 in 10.0 mi ENE 11.5 mph - N/A   Clear
8:53 AM 84.0 °F 84.0 °F 60.1 °F 44% 30.12 in 10.0 mi ENE 8.1 mph - N/A   Clear
9:53 AM 86.0 °F 85.7 °F 60.1 °F 41% 30.14 in 10.0 mi ENE 10.4 mph - N/A   Clear
10:53 AM 87.1 °F 87.5 °F 62.1 °F 43% 30.14 in 10.0 mi East 8.1 mph - N/A   Clear
11:53 AM 88.0 °F 88.4 °F 62.1 °F 42% 30.14 in 10.0 mi East 8.1 mph - N/A   Clear
12:53 PM 88.0 °F 89.3 °F 64.0 °F 45% 30.14 in 10.0 mi East 11.5 mph 17.3 mph N/A   Clear
1:53 PM 89.1 °F 90.0 °F 63.0 °F 42% 30.13 in 10.0 mi ESE 9.2 mph 18.4 mph N/A   Clear
2:53 PM 89.1 °F 90.0 °F 63.0 °F 42% 30.12 in 10.0 mi East 11.5 mph - N/A   Clear
3:53 PM 88.0 °F 89.6 °F 64.9 °F 46% 30.09 in 10.0 mi East 11.5 mph 16.1 mph N/A   Clear
4:53 PM 87.1 °F 89.2 °F 66.0 °F 49% 30.08 in 10.0 mi East 9.2 mph 17.3 mph N/A   Clear
5:53 PM 87.1 °F 88.3 °F 64.0 °F 46% 30.07 in 10.0 mi ENE 12.7 mph 19.6 mph N/A   Clear
6:53 PM 84.0 °F 85.4 °F 64.0 °F 51% 30.08 in 10.0 mi East 12.7 mph - N/A   Mostly Cloudy
7:53 PM 84.0 °F 85.8 °F 64.9 °F 53% 30.09 in 10.0 mi ENE 12.7 mph 18.4 mph N/A   Mostly Cloudy
8:53 PM 82.9 °F 84.6 °F 64.9 °F 54% 30.09 in 10.0 mi ENE 15.0 mph 24.2 mph N/A   Clear
9:53 PM 82.0 °F 83.8 °F 64.9 °F 56% 30.10 in 10.0 mi East 9.2 mph 19.6 mph N/A   Clear
10:53 PM 82.0 °F 83.8 °F 64.9 °F 56% 30.11 in 10.0 mi ENE 15.0 mph - N/A   Clear
11:53 PM 82.0 °F 83.8 °F 64.9 °F 56% 30.12 in 10.0 mi ENE 13.8 mph 20.7 mph N/A   Clear